Regional Weather Roundup
Issued by NWS

Home | Current Version | Previous Version | Graphics & Text | Print | Product List | Glossary On
Versions: 1 2 3 4 5 6 7 8 9 10 11 12 13 14 15 16 17 18 19 20 21 22 23 24 25 26 27 28 29 30 31 32 33 34 35 36 37 38 39 40 41 42 43 44 45 46 47 48 49 50
456
ASUS45 KSLC 061410
RWRUT

UTAH REGIONAL WEATHER ROUNDUP
NATIONAL WEATHER SERVICE SALT LAKE CITY UT
700 AM MST SAT FEB 06 2016

UTZ001>011-023>025-061500-

NORTHERN UTAH

CITY           SKY/WX    TMP DP  RH WIND       PRES   REMARKS
BRIGHAM CITY   CLOUDY    13   9  87 N6        30.53S VSB<1/4 WCI   3
HILL AFB       PTCLDY    22  11  61 E13       30.49F WCI  10
LOGAN          FOG       14  11  87 CALM      30.49S VSB 1
OGDEN          PTCLDY    20  15  81 S8        30.49F WCI  10
PROVO AIRPORT  FOG        3   0  85 CALM      30.54F VSB 1/4
SALT LAKE CITY MOCLDY    24  18  77 SE10      30.52R WCI  14
VERNAL         CLOUDY     2  -3  80 CALM      30.54S
WENDOVER       CLOUDY    19  16  86 NE7       30.50S WCI  10
HEBER CITY     PTCLDY     0  -4  85 CALM      30.52F FOG
WEST JORDAN    CLEAR     23  18  80 S9        30.52F WCI  13

$$

UTZ012>022-026-027-061500-

SOUTHERN/CENTRAL UTAH

CITY           SKY/WX    TMP DP  RH WIND       PRES   REMARKS
BLANDING       PTCLDY    16   8  72 CALM      30.56R
BRYCE CANYON   PTCLDY    -1  -6  79 W9        30.47S WCI -16
CEDAR CITY     PTCLDY     2  -1  88 CALM      30.47F
DELTA          CLOUDY     4   2  89 NE5       30.52F WCI  -5
HANKSVILLE     CLOUDY    16  14  93 NW7       30.65S WCI   6
MILFORD        CLOUDY    -2  -6  83 SW7       30.52R FOG     WCI -15
MOAB/CYNLANDS  CLOUDY    17  14  88 N3        30.59S
PRICE          PTCLDY     6   2  83 NW3       30.50S
ST GEORGE      MOSUNNY   28  19  69 S6        30.54F WCI  22
KANAB          CLEAR     28  19  69 NW13      30.53S WCI  18

$$

REGIONAL REPORTS     COLORADO/ARIZONA

CITY           SKY/WX    TMP DP  RH WIND       PRES   REMARKS
CRAIG, CO      CLOUDY   -11 -16  78 CALM      30.50S
GRAND JUNCTION CLOUDY     0  -3  87 CALM      30.59S
RIFLE          CLOUDY     2  -3  80 SE5       30.59R WCI  -8
MONTROSE       CLOUDY     4  -2  76 S7        30.59R WCI  -8
CORTEZ         CLOUDY     6   1  80 NE10      30.49F WCI  -9
PAGE, AZ       PTCLDY    25  19  78 CALM      30.54R
GRAND CANYON   PTCLDY     8   3  80 CALM      30.47R
KINGMAN        CLEAR     32  32 100 E6        30.43S WCI  26
FLAGSTAFF      PTCLDY     7   3  84 CALM      30.45F

$$

REGIONAL REPORTS    NEVADA/IDAHO/WYOMING

CITY           SKY/WX    TMP DP  RH WIND       PRES   REMARKS
LAS VEGAS, NV  CLEAR     39  25  57 S6        30.42F WCI  35
ELY            PTCLDY     5   0  79 S17       30.47S WCI -14
ELKO           PTCLDY     7   3  84 E3        30.51R
POCATELLO, ID  CLOUDY    14  12  92 E5        30.46F WCI   6
BURLEY         CLEAR     19  16  88 N7        30.44R WCI  10
EVANSTON, WY   CLOUDY    14   9  80 SW15      30.42S WCI  -1
ROCK SPRINGS   CLOUDY    19  13  77 SW23      30.38S WCI   2

$$




USA.gov is the U.S. government's official web portal to all federal, state and local government web resources and services.